Unicom:                    122.8

AWOS:                  118.275

Elevation           1458’ MSL

TPA:                   2500’ MSL

06/24:         5003’ L   75’ W

PAPI:       06/Left     24/Left

(Operate lights on unicom freq.)

Traffic Pattern: Left

Beacon: Sunset to Sunrise

Windsock: yes, lighted

Segmented Circle: No

 

Cleveland Center: 126.72/291.65

FSS: Altoona

[Source: ADDS]
METAR
KFKL 270756Z AUTO 30005KT 10SM SCT100 17/14 A3003 RMK AO2 SLP160 T01670144 $ =
KFKL 270559Z 2706/2806 31010KT P6SM BKN035 FM271200 30010G18KT P6SM SKC
TAF
KFKL 270559Z 2706/2806 31010KT P6SM BKN035 FM271200 30010G18KT P6SM SKC =
[Source: ADDS]
METAR
KDUJ 270753Z AUTO 30007KT 10SM FEW050 BKN065 OVC085 20/18 A2999 RMK AO2 RAE08B30E39 SLP142 P0002 T02000178 =
KDUJ 270700Z 2707/2806 29008G18KT 2SM -RA BR BKN003 FM270800 32006KT P6SM BKN050 FM271400 30011G18KT P6SM SKC FM280000 34006KT P6SM SKC
TAF
KDUJ 270700Z 2707/2806 29008G18KT 2SM -RA BR BKN003 FM270800 32006KT P6SM BKN050 FM271400 30011G18KT P6SM SKC FM280000 34006KT P6SM SKC =

Welcome to Clarion County Airport.

We look forward to serving all of your aviation needs.


Clarion County Airport is a General Aviation, Business Class airport serving the Clarion County Area in Central Western Pennsylvania.  Our 5,003' asphalt runway and gps approaches are capable of serving most of the general aviation fleet in most weather conditions.


If you are planning a fuel stop while flying in Western Pennsylvania, consider paying us a visit. Our prices are some of the lowest in the state Check prices here ----> www.airnav.com/fuel and enter identifier KAXQ or see current prices below. We can have you fueled and taxiing out to the runway in about 10 minutes. Our current hours of operation are Monday- Sunday 8:00AM-4:00PM. Holiday closures are Christmas Day and Thanksgiving. If you require use of the facilities during the holidays or after hours please call ahead and someone will be there to assist you.


- Airport Manager -  


                             CURRENT FUEL PRICES       JET-A w/additive    $5.05            100LL     $5.49  


                              Self Service fueling available 24/7, credit card reader enabled. Center point fueling available upon request.

                                                           For after hours fueling assistance please contact 814-227-3854